THORAD DELTA 1 DEB, 42619

Orbit data source: Space-Track

THORAD DELTA 1 DEB, 42619 is space debris in SSO originally from a launch on Fri, 15 Nov 1974 UTC launched from the Air Force Western Test Range (AFWTR). Debris objects in space refer to the collection of defunct objects orbiting the Earth. Examples of debris include non-operational satellites, rocket bodies, and fragments generated from explosions, collisions, or faulty payload assembly.

Loading next visibility...
Identifier
42619, 1974-089GL
Orbit
SSO
Country
Flag of USUS
Related business
Manufacturer
Unknown
Mission
Spacecraft
Bus & Motor
Unknown
Mass
Unknown
Launch date (UTC)
1974-11-15 (52 years ago)
Launch vehicle
Unknown
Launch site
Air Force Western Test Range (AFWTR)
Object type
Payload
Rocket body
Debris
Shape & HBR
Unknown shape, 0.1 m
Radar Cross Section
Medium (>0.1 m² and <1 m²)

Expand to show TLE details & history
Last TLE update: 9 hours ago

TLE from 9 hours ago
0 THORAD DELTA 1 DEB
1 42619U 74089GL  26177.97014556  .00001071  00000-0  17419-2 0  9993
2 42619 102.0449 179.0449 0180827  20.8921   8.5348 13.45007724615425
Epoch: 2026-06-26T23:17Z
TLE epoch observation values (Epoch: 2026-06-26T23:17:00.576Z)
Latitude
29.07293°
Longitude
-92.07584°
Altitude
960.556 km
Speed
7.44 km/s
True Right ascension
11h 29m 04s
True Declination
28° 55' 52"
Sunlit
Object was in daylight at epoch
Visualization orbit readout
Latitude
Unknown
Longitude
Unknown
Altitude
Unknown
Speed
Unknown
Apparent Right ascension
Unknown
Apparent Declination
Unknown
Sunlit
N/A
Visualization observer readout
Local Sidereal Time
19:57:30
Azimuth
Unknown
Elevation
Unknown
Doppler factor
Unknown
Orbital elements
Apogee altitude
1,223.134 km
Perigee altitude
953.114 km
Semi-major axis
7,466.261 km
Eccentricity
0.01808
Inclination
102.0449°
RAAN
179.0449°
Arg. of periapsis
20.8921°
True anomaly
8.84935°
Mean anomaly
8.5348°
Eccentric anomaly
8.69136°
Mean motion
3.36425 °/min
Orbital period
107.01 mins
BSTAR
0.0017419
Loading maneuver chart data...
Computing Atmospheric mass density...

Documentation

Showing up to 5 results
|